Theta_e
307 306 305 306 304 304 303 304 304 304 306 307 305 305 306 306 304 305 306 307 309 308 308 309 310 310 312 315 317 318 318 317 315 313 311 307 305 303 302 305 302 303 304 307
307 307 305 304 305 305 305 306 305 305 305 305 304 305 304 304 304 306 306 307 306 306 307 308 310 310 312 314 316 318 318 316 314 312 309 306 303 301 304 304 303 303 305 308
306 305 304 304 305 305 304 304 305 306 305 304 303 304 307 307 307 306 306 306 306 308 308 309 310 312 314 315 316 317 316 315 313 310 307 305 303 301 306 304 303 302 305 308
305 304 304 304 304 304 304 303 304 306 305 304 304 304 305 306 306 306 305 307 308 309 310 311 312 314 314 315 316 316 315 313 311 308 306 303 301 303 306 304 302 303 306 308
305 305 304 305 304 303 304 303 303 305 304 306 305 304 304 305 307 306 304 306 309 311 311 312 313 313 314 315 315 315 313 310 309 307 304 303 301 303 306 303 303 303 306 308
303 305 304 304 304 303 304 305 304 303 305 303 304 304 304 305 307 307 305 305 307 310 312 312 313 313 314 315 314 312 310 309 307 306 304 303 301 304 306 304 304 304 306 308
305 305 305 305 305 306 305 305 302 304 300 305 303 304 305 305 307 306 305 305 306 307 309 311 312 313 313 313 311 310 309 307 306 305 304 302 300 304 306 305 305 305 305 308
307 306 305 304 304 306 304 306 307 307 305 306 303 306 306 304 304 307 306 307 306 306 307 308 310 311 311 311 310 309 308 307 306 305 305 303 300 303 306 305 305 306 305 307
307 307 304 304 304 306 307 307 305 305 296 306 305 304 305 303 303 303 304 305 306 307 307 308 309 309 310 310 309 308 307 307 306 305 305 304 300 303 306 305 305 306 306 306
306 309 303 304 304 304 305 304 307 304 304 308 307 307 309 305 303 301 302 303 305 306 307 308 308 309 309 309 309 308 307 307 306 305 305 304 301 302 305 306 306 306 306 306
307 309 305 304 305 306 305 305 305 306 307 308 306 308 304 306 303 301 301 304 305 306 307 307 308 308 309 309 309 308 307 307 306 305 305 305 303 301 304 306 306 306 306 306
310 307 307 306 304 303 303 305 305 309 308 304 307 308 304 304 301 301 301 304 304 305 306 307 307 307 308 308 308 308 307 307 306 305 305 305 304 302 302 306 306 306 306 307
310 310 310 309 308 304 305 304 305 306 306 307 309 309 303 302 301 303 304 306 306 304 305 306 306 307 307 307 307 307 307 307 306 306 305 305 304 303 301 304 307 307 306 307
309 308 313 315 312 307 305 304 304 308 309 308 308 308 306 304 303 302 305 306 306 306 304 304 305 306 306 307 307 307 307 307 306 306 305 305 304 303 301 302 306 307 307 307
309 310 309 304 306 307 307 307 306 307 308 311 310 306 306 304 303 303 306 305 306 306 306 305 305 304 305 305 306 306 306 306 306 306 305 305 304 303 302 301 303 306 307 308
308 308 308 310 303 305 306 305 307 307 306 308 301 302 304 305 305 304 304 306 306 306 307 307 307 307 307 307 306 305 305 305 304 304 304 304 304 303 303 302 302 305 307 308
310 306 312 315 306 309 311 308 306 306 306 308 307 307 304 304 304 303 304 306 306 307 307 307 307 307 307 307 307 307 307 307 306 305 304 304 304 303 303 302 301 303 306 307
309 307 309 304 309 314 312 307 309 307 306 306 305 305 305 306 306 306 306 307 307 307 307 307 307 307 307 307 307 307 307 307 306 305 304 304 303 303 303 302 301 302 305 307
308 307 305 307 305 308 309 303 305 307 310 306 306 305 304 305 305 304 306 307 308 308 308 308 307 307 307 307 307 307 306 306 305 305 304 303 303 302 302 302 301 302 304 306
309 309 308 304 309 309 308 303 303 305 310 306 306 306 302 304 306 303 306 307 308 308 309 308 307 307 306 306 306 306 305 304 304 304 303 303 302 302 302 301 301 302 304 306
309 310 310 307 300 304 304 300 304 308 310 305 306 305 305 306 306 308 307 307 308 308 308 307 307 307 307 307 306 305 304 303 302 302 302 301 301 301 301 301 301 302 304 306
309 309 307 305 297 308 300 301 306 306 304 305 305 305 306 306 307 307 307 307 306 306 306 305 304 303 303 303 303 304 305 306 304 302 301 300 300 300 301 301 300 301 305 308
307 306 303 305 308 301 303 302 304 305 305 304 305 305 306 306 304 307 306 305 304 304 303 302 301 300 299 299 299 299 299 301 302 304 305 302 301 300 301 301 300 300 303 307
303 300 302 302 303 301 302 304 305 306 306 305 305 305 305 305 305 305 305 304 302 301 300 298 298 297 296 296 296 297 297 297 297 298 300 302 305 302 300 300 300 300 302 306
299 299 296 298 301 301 302 304 305 306 306 304 304 305 306 306 303 306 303 301 299 298 297 296 296 296 296 296 297 297 297 296 296 296 296 297 298 302 305 303 300 300 300 303
295 300 304 304 301 302 303 305 306 307 306 306 305 303 303 306 305 304 300 298 297 296 295 295 296 297 297 297 297 297 296 295 294 294 294 295 296 296 298 302 304 302 300 299
Wind_Speed
5 4 9 15 5 2 3 3 2 3 1 2 6 9 13 20 12 19 23 23 24 20 13 15 17 17 19 20 18 18 16 13 11 10 9 7 6 7 6 5 4 4 5 5
3 10 8 6 7 5 1 1 4 3 1 2 4 13 10 9 7 7 11 12 10 14 15 18 19 19 19 18 18 17 15 12 11 10 8 7 6 7 5 4 4 4 4 3
6 3 9 7 5 8 4 6 3 3 3 1 6 9 4 1 2 3 1 3 7 12 18 20 21 20 19 17 16 15 13 12 11 10 8 7 6 5 4 4 3 3 2 1
6 4 5 4 6 7 5 9 6 1 4 4 3 5 5 2 5 3 4 6 10 15 17 19 21 21 19 17 17 15 13 12 11 9 7 6 5 4 4 4 2 2 1 0
9 8 6 5 7 8 5 5 7 4 4 1 2 1 8 2 6 7 7 9 11 14 16 19 20 18 19 18 17 16 14 14 12 9 7 5 5 4 3 3 2 1 1 1
5 2 5 5 2 10 8 7 7 4 3 2 7 7 5 5 6 3 4 13 13 15 16 17 18 19 20 20 18 16 15 14 12 9 6 5 4 4 4 3 3 1 2 2
1 4 2 3 6 3 2 6 3 3 2 6 2 3 8 4 5 5 8 14 15 16 18 19 21 22 22 21 18 17 16 14 11 9 7 5 5 5 4 3 3 2 2 3
8 4 9 5 6 8 7 7 6 8 5 3 2 7 6 4 7 6 6 12 15 17 18 19 20 21 21 20 18 18 16 14 11 8 7 5 5 5 5 4 4 3 3 3
9 7 1 1 4 8 6 7 4 6 2 2 5 7 9 5 4 5 7 14 17 17 18 18 19 19 20 20 18 17 16 14 12 9 8 6 5 4 6 5 4 4 4 4
6 3 1 2 2 1 4 7 3 2 4 4 4 5 5 5 9 7 7 14 16 15 17 17 18 19 19 18 17 17 16 14 12 10 8 7 6 5 6 6 5 5 5 5
3 2 1 5 6 8 3 3 3 4 4 5 2 6 7 8 9 10 8 14 14 15 15 17 17 17 18 18 18 17 17 15 13 11 9 8 7 6 7 7 6 5 5 5
6 4 4 4 1 2 3 5 6 5 6 2 3 6 1 5 7 14 14 13 11 13 14 14 15 17 18 19 19 18 17 16 14 12 11 9 9 7 7 7 7 7 6 6
13 5 4 3 5 2 5 5 4 4 3 7 6 7 4 2 7 12 17 14 12 12 13 15 16 16 17 17 18 18 17 16 16 15 14 12 11 9 7 8 8 8 7 7
22 3 11 13 6 12 10 8 7 4 4 5 7 4 3 5 8 9 16 17 15 13 13 13 14 14 15 16 17 17 17 17 17 17 16 15 13 11 9 9 10 10 9 8
12 12 12 4 4 9 8 14 11 9 18 11 15 8 8 13 13 16 22 20 17 15 13 13 12 12 13 14 16 17 18 18 18 18 18 16 14 14 11 10 10 11 11 10
5 3 6 7 1 2 2 7 17 23 17 13 2 6 5 7 8 16 23 24 20 17 14 12 11 10 10 11 12 14 16 17 19 18 17 17 17 16 14 12 11 12 12 12
11 5 7 6 7 6 4 20 17 17 22 25 17 10 5 5 10 20 27 27 23 19 15 12 9 8 8 9 10 11 13 14 15 17 17 18 18 17 15 13 12 13 12 12
17 9 2 3 8 7 9 4 19 23 16 23 8 10 12 12 30 25 30 30 24 20 16 12 9 7 6 5 6 8 11 13 14 15 17 18 18 17 15 14 12 13 13 12
14 9 4 6 4 4 5 7 10 13 20 19 27 13 8 14 18 6 28 25 23 20 17 13 10 7 5 4 2 2 4 7 10 13 15 16 16 15 15 14 12 12 12 11
14 15 9 4 6 9 7 6 15 9 12 20 25 21 11 20 8 5 32 28 24 21 18 16 14 12 10 9 7 6 5 4 6 10 12 13 13 13 13 12 12 11 11 10
8 11 15 6 3 7 6 9 19 8 7 12 35 27 26 14 9 26 37 30 27 24 23 20 18 16 16 17 15 13 11 8 6 5 7 9 10 11 12 12 11 10 11 10
12 9 5 5 3 8 10 11 15 6 2 12 28 39 37 25 23 43 41 37 33 31 28 25 24 22 22 20 16 19 19 18 14 8 4 4 7 8 10 10 10 10 11 9
5 7 7 9 7 2 30 1 12 4 6 8 25 31 38 36 43 49 45 40 36 34 31 28 25 25 23 21 18 18 21 19 17 16 13 8 2 4 7 8 9 9 11 9
1 1 5 4 7 6 27 8 23 6 5 12 25 33 43 44 48 49 47 44 40 36 33 30 27 25 24 20 18 18 17 16 14 13 13 12 9 5 2 7 9 9 10 10
4 6 6 4 2 3 10 16 20 9 8 16 23 33 40 43 46 52 49 46 43 39 35 30 27 24 23 19 16 16 14 13 11 10 9 8 8 7 6 3 6 10 10 12
5 7 7 6 7 5 10 29 22 19 20 21 28 30 34 43 50 51 49 46 44 41 35 30 25 21 20 16 14 13 12 12 11 10 8 6 6 6 5 5 5 6 10 12
Wind_Direction
185 160 196 202 183 100 133 204 249 226 209 216 240 265 273 282 262 268 273 271 268 256 231 202 196 194 194 195 199 203 205 211 216 227 240 258 286 303 308 317 314 342 357 11
92 243 208 173 188 207 16 321 264 280 208 202 323 284 259 259 250 257 282 278 252 198 190 183 184 185 188 192 190 193 202 210 214 220 235 258 288 299 298 301 300 337 1 24
177 224 182 160 159 182 212 195 225 246 335 257 329 289 296 229 171 234 299 188 175 181 174 171 172 176 178 182 186 192 200 206 213 221 236 261 289 290 285 287 296 323 357 24
252 229 137 181 201 150 214 200 174 228 37 247 17 278 297 231 271 234 186 161 162 163 164 165 169 172 175 180 184 190 197 207 210 219 238 262 282 272 265 274 291 311 326 207
227 182 166 176 209 173 221 134 171 143 139 14 244 2 273 332 258 223 204 182 168 165 169 170 172 176 177 184 186 191 197 200 206 216 234 259 277 253 258 267 264 197 204 219
222 219 192 199 130 172 159 82 54 57 85 311 205 173 263 204 217 182 176 190 180 174 173 175 178 180 182 183 189 195 195 197 204 217 231 252 262 236 238 245 256 215 193 209
160 209 230 170 98 69 113 103 18 354 5 225 352 179 249 228 218 197 191 190 188 186 184 184 187 187 187 187 190 193 195 197 206 218 231 243 250 234 227 225 245 242 215 208
180 271 165 183 186 172 190 168 162 195 196 213 100 229 243 219 206 204 175 189 185 188 190 192 193 194 192 190 192 193 195 199 206 219 235 242 246 235 229 223 239 247 237 213
164 232 84 83 148 146 197 214 151 103 29 65 207 282 289 197 209 202 185 177 185 190 193 192 192 195 196 195 194 195 197 203 208 213 231 241 245 231 235 226 233 242 240 216
201 121 319 138 133 54 175 158 96 8 145 243 273 280 242 215 207 204 188 191 189 189 193 192 194 195 196 197 196 198 202 209 212 217 225 237 242 236 230 231 227 233 235 218
154 101 161 133 211 176 158 180 192 142 167 178 199 254 218 224 187 186 195 190 189 193 196 196 194 194 197 199 201 203 208 213 217 221 226 237 243 242 233 225 227 221 227 223
182 107 149 180 209 210 304 219 171 175 219 234 155 263 336 264 192 168 179 175 184 194 193 193 194 197 200 203 206 210 214 217 219 223 229 233 241 243 239 226 225 225 228 237
176 179 114 49 347 20 237 207 222 115 87 195 160 254 359 88 139 173 161 166 166 172 183 189 193 197 201 205 211 215 218 219 221 225 229 231 239 243 240 234 223 229 227 240
156 161 195 203 191 147 186 198 208 179 176 188 223 225 233 207 175 171 171 170 168 164 167 177 186 191 197 205 212 219 222 224 226 230 232 233 236 242 236 237 229 227 233 236
170 209 207 53 334 155 172 194 182 204 234 207 235 205 223 201 195 183 174 171 171 170 169 169 173 181 195 205 212 219 223 227 230 233 234 236 235 238 237 238 235 226 232 234
180 189 150 210 59 287 164 190 192 208 221 246 91 281 252 174 151 176 180 176 174 174 174 177 180 190 202 212 219 227 232 233 233 234 236 234 232 234 236 234 235 228 227 236
171 141 166 198 138 98 271 220 199 209 217 220 223 199 168 155 184 195 187 181 176 176 177 177 178 190 205 218 228 234 239 240 240 238 233 230 229 232 233 235 236 231 227 234
173 160 151 122 130 203 235 187 201 205 211 216 221 181 181 195 199 198 191 184 177 176 172 171 176 186 196 206 221 235 239 237 232 227 224 223 223 224 226 233 236 232 228 234
183 166 128 160 206 307 243 199 163 178 237 215 216 198 180 154 154 178 190 189 181 173 166 163 160 162 166 167 171 214 243 239 228 218 214 215 217 221 221 224 231 233 231 237
186 185 166 174 165 195 224 200 142 94 268 203 202 199 145 144 177 212 185 185 174 167 162 157 148 137 125 122 119 112 115 143 180 194 204 212 218 221 224 226 229 234 233 236
174 178 186 178 178 269 215 152 143 131 244 195 190 176 165 187 192 189 174 169 169 165 160 153 142 132 116 100 92 96 94 103 121 164 198 211 213 215 216 222 231 238 235 236
166 163 166 129 116 255 151 141 173 211 119 188 180 180 182 177 164 162 165 163 162 158 153 146 139 127 114 105 100 94 88 80 78 84 114 180 207 221 224 227 233 231 235 245
157 178 166 188 201 164 175 104 194 216 158 191 186 178 170 163 154 160 160 159 157 154 148 143 137 127 117 109 101 94 85 78 72 69 69 72 109 216 225 236 235 237 242 238
272 156 138 100 215 186 192 216 208 209 214 186 186 173 172 158 160 159 158 157 155 151 146 141 135 127 119 111 102 88 80 72 64 58 55 53 54 51 261 244 245 248 240 234
190 139 157 256 194 113 207 200 193 193 173 161 176 179 175 166 159 162 159 156 152 148 143 140 136 129 119 110 99 85 73 61 46 37 31 27 29 26 17 334 262 252 248 242
187 174 181 224 153 154 188 188 184 177 167 162 166 168 172 170 164 163 158 155 152 148 145 142 137 128 116 108 93 80 64 46 29 15 2 348 334 334 342 342 323 280 256 251